Вернуться в каталог

STARLINK-35210

АктивенСвязьVLEO
NORAD 65903·PAYLOAD·🇺🇸 United States

Запущен Oct 7, 2025 с Cape Canaveral Space Force Station

Loading…

Ближайшие Пролёты (ближайшие 24 часа)

TLE

СвежийSource: CelesTrak SupGP

Эпоха: Sep 14, 2026, 23:02 UTC

1 65903C 25224X   26257.96020833 -.00010531  00000+0 -31103-3 0  2570
2 65903  53.1578 211.5294 0001328  92.9544 205.0368 15.34406331    10

Отслеживайте STARLINK-35210 в реальном времени с AllMySat

Download on the App Store